Regional Weather Roundup
Issued by NWS

Home | Current Version | Previous Version | Graphics & Text | Print | Product List | Glossary On
Versions: 1 2 3 4 5 6 7 8 9 10 11 12 13 14 15 16 17 18 19 20 21 22 23 24 25 26 27 28 29 30 31 32 33 34 35 36 37 38 39 40 41 42 43 44 45 46 47 48 49 50
000
ASUS43 KBIS 311210
RWRND

NORTH DAKOTA REGIONAL WEATHER ROUNDUP
NATIONAL WEATHER SERVICE BISMARCK ND
700 AM CDT FRI OCT 31 2014

NOTE: "FAIR" INDICATES FEW OR NO CLOUDS BELOW 12,000 FEET WITH NO
SIGNIFICANT WEATHER AND/OR OBSTRUCTIONS TO VISIBILITY.


NDZ001>003-009>011-017-311300-
NORTHWEST NORTH DAKOTA

CITY           SKY/WX    TMP DP  RH WIND       PRES   REMARKS
WILLISTON      CLOUDY    31  25  78 S18G25    30.35F WCI  19
6HR MIN TEMP:  29; 6HR MAX TEMP:  31;

MINOT          PTCLDY    17  12  80 SE8       30.48F WCI   7
MINOT AFB      PTCLDY    16  15  95 SE10      30.48F WCI   4
$$

NDZ018>021-031>035-040>046-311300-
SOUTHWEST NORTH DAKOTA

CITY           SKY/WX    TMP DP  RH WIND       PRES   REMARKS
BISMARCK       CLEAR     14  12  92 SE5       30.54F WCI   6
6HR MIN TEMP:  13; 6HR MAX TEMP:  22;

DICKINSON      CLOUDY    27  22  81 S20       30.36F WCI  13
GARRISON         N/A     25  22  88 SE9G21    30.49S WCI  15
6HR MIN TEMP:  16; 6HR MAX TEMP:  26;

HETTINGER ARPT CLOUDY    27  25  92 SE14G22   30.41F WCI  16
$$

NDZ004>008-012>016-024-026-027-054-311300-
NORTHEAST NORTH DAKOTA

CITY           SKY/WX    TMP DP  RH WIND       PRES   REMARKS
GRAND FORKS    CLEAR     12   9  87 NW3       30.62S
GRND FRKS AFB  CLEAR     12  10  93 NW5       30.61F WCI   4
DEVILS LAKE    PTCLDY    14   5  67 SE3       30.55S
$$

NDZ022-023-025-028>030-036>039-047>053-311300-
SOUTHEAST NORTH DAKOTA

CITY           SKY/WX    TMP DP  RH WIND       PRES   REMARKS
FARGO          FAIR      16  11  80 CALM      30.61R
6HR MIN TEMP:  14; 6HR MAX TEMP:  23;

JAMESTOWN      CLEAR     14  11  87 CALM      30.57F
$$




USA.gov is the U.S. government's official web portal to all federal, state and local government web resources and services.